Location: Unspecified
(0.0000°N, 0.0000°E)
Time: 13:08:36
(UTC+00:00)

Envisat - Pass Details

Date: 16 June 2021
Orbit: 764 x 766 km, 98.1° (Epoch: 18 June)

Event Time Altitude Azimuth Distance (km) Brightness Sun altitude
Rises 05:06:10 0° 8° (N) 3,213 6.7 -12.5°
Reaches altitude 10° 05:08:28 10° 7° (N) 2,290 5.9 -12.0°
Maximum altitude 05:13:30 74° 282° (WNW) 794 2.9 -10.8°
Drops below altitude 10° 05:18:34 10° 197° (SSW) 2,301 5.1 -9.7°
Sets 05:20:53 0° 195° (SSW) 3,229 5.9 -9.1°
